This demonstration page uses our WeatherBlox Daily Observations layout. Learn more.

Left ArrowRight Arrow

Hourly Observations for May 26, 2021

Temp ( °F °C ) Dew Point ( °F °C ) Humidity (%) Winds ( mph kmh ) Pressure ( in mb ) Visibility ( mi km ) Precip ( " mm )
12:15 am 00:15 Clear 61 16.2 51 10.7 70 70 N N/A 30.00 1016 10 16 N/A
12:35 am 00:35 Clear 59 15 53 11.6 80 80 N N/A 30.01 1016 10 16 N/A
12:55 am 00:55 Clear 61 15.9 51 10.3 70 70 N N/A 30.01 1016 10 16 N/A
1:15 am 01:15 Clear 59 15.2 52 10.9 76 76 N N/A 30.02 1017 10 16 N/A
1:35 am 01:35 Clear 59 14.9 52 11 78 78 N N/A 30.02 1017 10 16 N/A
1:55 am 01:55 Clear 59 15.1 52 11 77 77 N N/A 30.03 1017 10 16 N/A
2:15 am 02:15 Clear 60 15.5 51 10.3 71 71 SW 3 6 30.02 1017 10 16 N/A
2:35 am 02:35 Clear 56 13.1 50 10 82 82 NE 9 15 30.05 1017 10 16 N/A
2:55 am 02:55 Clear 56 13.4 52 10.9 85 85 NE 7 11 30.04 1017 10 16 N/A
3:15 am 03:15 Clear 56 13.5 51 10.8 84 84 N N/A 30.04 1017 10 16 N/A
3:35 am 03:35 Clear 58 14.2 51 10.3 78 78 ENE 5 7 30.04 1017 10 16 N/A
3:55 am 03:55 Clear 56 13.5 51 10.7 83 83 N N/A 30.04 1017 10 16 N/A
4:15 am 04:15 Clear 57 14.1 50 10.1 77 77 SSE 5 7 30.05 1018 10 16 N/A
4:35 am 04:35 Clear 57 13.9 50 10.2 79 79 N N/A 30.05 1018 10 16 N/A
4:55 am 04:55 Clear 56 13.2 50 10.2 82 82 N N/A 30.05 1018 10 16 N/A
5:15 am 05:15 Clear 56 13.5 50 10.1 80 80 N N/A 30.06 1018 10 16 N/A
5:35 am 05:35 Clear 55 12.8 49 9.5 81 81 N N/A 30.06 1018 10 16 N/A
5:55 am 05:55 Clear 55 12.8 50 10 83 83 N N/A 30.06 1018 10 16 N/A
6:15 am 06:15 Sunny 54 12.3 49 9.6 84 84 N 9 15 30.08 1019 10 16 N/A
6:35 am 06:35 Sunny 54 12.1 51 10.3 89 89 NNE 6 9 30.08 1019 10 16 N/A
6:55 am 06:55 Sunny 56 13.1 51 10.7 86 86 NNE 3 6 30.09 1019 10 16 N/A
7:15 am 07:15 Sunny 57 13.9 53 11.5 86 86 N N/A 30.10 1019 10 16 N/A
7:35 am 07:35 Sunny 59 15 53 11.5 80 80 NNE 5 7 30.10 1019 10 16 N/A
7:55 am 07:55 Sunny 60 15.8 53 11.9 78 78 NNE 7 11 30.10 1019 10 16 N/A
8:15 am 08:15 Sunny 61 16.3 52 11.3 72 72 NE 9 15 30.11 1020 10 16 N/A
8:35 am 08:35 Sunny 61 16.3 52 11.2 72 72 NE 7 11 30.11 1020 10 16 N/A
8:55 am 08:55 Sunny 62 16.7 53 11.7 73 73 ENE 9 15 30.10 1019 10 16 N/A
9:15 am 09:15 Partly Cloudy 63 17 53 11.5 70 70 ENE 12 19 30.10 1019 10 16 N/A
9:35 am 09:35 Partly Cloudy 63 17.2 52 11.1 68 68 E 12 19 30.08 1019 10 16 N/A
9:55 am 09:55 Partly Cloudy 63 17.1 52 11.3 69 69 E 16 26 30.06 1018 10 16 N/A
10:15 am 10:15 Mostly Cloudy 64 17.7 53 11.6 68 68 E 17 28 30.04 1017 10 16 N/A
10:35 am 10:35 Sunny 66 18.8 54 12 65 65 ENE 14 22 30.06 1018 10 16 N/A
10:55 am 10:55 Sunny 67 19.5 53 11.8 61 61 E 14 22 30.05 1018 10 16 N/A
11:15 am 11:15 Sunny 69 20.3 53 11.9 59 59 E 15 24 30.04 1017 10 16 N/A
11:35 am 11:35 Sunny 71 21.5 54 12.1 55 55 ESE 16 26 30.02 1017 10 16 N/A
11:55 am 11:55 Sunny 70 21.2 54 12.3 57 57 E 16 26 30.02 1016 10 16 N/A
12:15 pm 12:15 Sunny 71 21.9 55 12.9 57 57 ESE 14 22 30.00 1016 10 16 N/A
12:35 pm 12:35 Partly Cloudy 73 23 55 12.5 52 52 ESE 15 24 30.00 1016 10 16 N/A
12:55 pm 12:55 Partly Cloudy with Nearby Thunderstorms 74 23.1 55 12.9 53 53 ESE 16 26 29.99 1016 10 16 N/A
1:15 pm 13:15 Sunny 73 23 56 13.1 54 54 SE 13 20 29.99 1016 10 16 N/A
1:35 pm 13:35 Partly Cloudy 75 23.7 56 13.2 52 52 SE 13 20 29.99 1015 10 16 N/A
1:55 pm 13:55 Partly Cloudy 75 24.1 57 13.7 52 52 ESE 14 22 29.95 1014 10 16 N/A
2:15 pm 14:15 Sunny 76 24.3 56 13.6 51 51 SE 21 33 29.93 1014 10 16 N/A
2:35 pm 14:35 Sunny 76 24.5 58 14.2 53 53 SE 21 33 29.91 1013 10 16 N/A
2:55 pm 14:55 Sunny 77 24.8 58 14.4 52 52 ESE 17 28 29.90 1012 10 16 N/A
3:15 pm 15:15 Sunny 78 25.5 57 14 49 49 SE 16 26 29.89 1012 10 16 N/A
3:35 pm 15:35 Sunny 78 25.8 55 12.5 44 44 SE 15 24 29.90 1013 10 16 N/A
3:55 pm 15:55 Partly Cloudy 80 26.5 52 10.9 38 38 SSE 20 31 29.89 1012 10 16 N/A
4:15 pm 16:15 Partly Cloudy 77 25.2 55 12.5 45 45 SE 13 20 29.89 1012 10 16 N/A
4:35 pm 16:35 Mostly Cloudy 78 25.5 55 12.9 46 46 SE 15 24 29.87 1012 10 16 N/A
4:55 pm 16:55 Mostly Cloudy 78 25.7 56 13.3 46 46 SE 16 26 29.85 1011 10 16 N/A
5:15 pm 17:15 Mostly Cloudy 78 25.8 54 12 42 42 SE 18 30 29.84 1011 10 16 N/A
5:35 pm 17:35 Mostly Cloudy with Nearby Thunderstorms 77 24.8 55 13 48 48 SE 16 26 29.83 1010 10 16 N/A
5:55 pm 17:55 Cloudy 75 24 57 14.1 54 54 SE 15 24 29.84 1011 10 16 N/A
6:15 pm 18:15 Cloudy with Nearby Thunderstorms 76 24.3 54 12.3 47 47 SE 15 24 29.81 1010 10 16 N/A
6:35 pm 18:35 Cloudy 75 23.7 55 12.5 50 50 SE 14 22 29.82 1010 10 16 N/A
6:55 pm 18:55 Cloudy with Nearby Thunderstorms 73 23 55 13 53 53 SE 10 17 29.80 1009 10 16 N/A
7:15 pm 19:15 Cloudy with Nearby Thunderstorms 72 22.2 56 13.5 58 58 E 8 13 29.82 1010 10 16 N/A
7:35 pm 19:35 Cloudy with Nearby Thunderstorms 70 21.3 58 14.2 64 64 ENE 13 20 29.80 1009 10 16 N/A
7:55 pm 19:55 Cloudy with Nearby Thunderstorms 69 20.4 57 13.9 66 66 N 10 17 29.85 1011 10 16 N/A
8:15 pm 20:15 Cloudy with Strong Thunderstorms 62 16.5 59 14.9 90 90 NNW 25 41 29.93 1013 1 1 0.69 17.53
8:35 pm 20:35 Cloudy with Thunderstorms 60 15.5 58 14.7 95 95 NE 21 33 29.93 1013 2 3 1.12 28.45
8:55 pm 20:55 Cloudy with Light Rain 60 15.5 58 14.5 94 94 ENE 25 41 29.93 1013 10 16 1.30 33.02
9:15 pm 21:15 Cloudy 61 15.9 57 13.9 88 88 ENE 23 37 29.88 1012 10 16 N/A
9:35 pm 21:35 Partly Cloudy 61 16.3 57 14 86 86 ENE 22 35 29.89 1012 10 16 N/A
9:55 pm 21:55 Partly Cloudy 61 16.3 57 14 86 86 E 24 39 29.84 1010 10 16 N/A
10:15 pm 22:15 Mostly Cloudy with Rain 61 16.3 57 13.9 86 86 E 21 33 29.86 1011 7 11 0.02 0.51
10:35 pm 22:35 Cloudy with Thunderstorms 61 16.3 57 14.1 87 87 E 15 24 29.90 1012 10 16 0.02 0.51
10:55 pm 22:55 Cloudy with Thunderstorms 62 16.4 57 14 86 86 E 13 20 29.93 1013 10 16 0.04 1.02
11:15 pm 23:15 Cloudy with Thunderstorms 61 16.2 58 14.6 90 90 N 18 30 29.92 1013 10 16 0.02 0.51
11:35 pm 23:35 Cloudy with Light Rain 62 16.6 58 14.2 86 86 ENE 20 31 29.90 1012 10 16 0.02 0.51
11:55 pm 23:55 Cloudy with Nearby Thunderstorms 62 16.8 58 14.3 85 85 NE 13 20 29.95 1014 10 16 0.03 0.76

Powered by AerisWeather